User: anonymous   Login
Location: Betra
(48.4113°N, 8.6634°E)
Time: 20:39:04
(UTC+00:00)
Language:

Meteor 2-5 Rocket - Orbit

View from above orbital plane
View from above orbital plane
View from above satellite
View from above satellite

Ground track
Ground track

The orbit data is extracted from the following two-line orbital elements,

1 11608U 79095B   24197.82215938  .00000262  00000-0  14883-3 0  9994
2 11608  81.2114 221.5207 0055113  98.3369 262.4053 14.06369771293221
Epoch (UTC): 15 July 2024 19:43:54
Eccentricity: 0.0055113
inclination: 81.2114°
perigee height: 832 km
apogee height: 912 km
right ascension of ascending node: 221.5207°
argument of perigee: 98.3369°
revolutions per day: 14.06369771
mean anomaly at epoch: 262.4053°
orbit number at epoch: 29322

The dashed part of the orbit path shows where the satellite is in the earth's shadow,  

DLR